Location: Dumbr?vi?a
(45.8833°N, 22.7000°E)
Time: 13:53:40
(UTC+00:00)

Cosmos 1500 - Pass Details

Date: 03 March 2021
Orbit: 499 x 517 km, 82.5° (Epoch: 15 April)

Event Time Altitude Azimuth Distance (km) Brightness Sun altitude
Rises 17:12:05 0° 172° (S) 2,579 6.7 -10.1°
Reaches altitude 10° 17:14:15 10° 166° (SSE) 1,700 5.7 -10.5°
Maximum altitude 17:17:48 44° 94° (E) 706 3.4 -11.1°
Drops below altitude 10° 17:21:22 10° 22° (NNE) 1,714 5.6 -11.7°
Sets 17:23:33 0° 15° (NNE) 2,604 6.6 -12.1°
